Weather in Zharkovsky

Russia / Tver Oblast     55°50′53″N   32°15′56″E
temp.,
°C
wind,
m/s
gust,
m/s
humid.,
%
clouds,
%
prec.,
mm/h
press.,
hPa
HPBL,
m
8 may, sat
sat800:00+7s51091100 0.6 10071121
03:00+7s51193100 1.9 1005913
06:00+7ssw3894100 0.1 1004676
09:00+6wnw2489100 0.2 1005330
12:00+6nnw478499 0.1 1007817
15:00+7nw5775100 0.2 10071094
18:00+7nw4867100 0.1 10071275
21:00+5nw41069100 0.1 1009788
9 may, sun
sun900:00+3wnw41179100 0.0 1011547
03:00+1wnw4129298 0.0 1013576
06:00+1wnw4129111 0.0 1016619
09:00+6nw58555 0.0 10171027
12:00+10nw573972 0.0 10192215
15:00+12nw57325 0.0 10202422
18:00+12nw354057 0.0 10212260
21:00+6w22675 0.0 102415
10 may, mon
mon1000:00+4wsw22775 0.0 102636
03:00+3ssw247315 0.0 102764
06:00+3s397222 0.0 1028216
09:00+10ssw485396 0.0 1028514
12:00+14sw4644100 0.0 10281166
15:00+16sw454598 0.0 10271334
18:00+16sw34535 0.0 10281260
21:00+10s22825 0.0 102939
11 may, tue
tue1100:00+7s2285100 0.0 103031
03:00+6sse228549 0.0 103036
06:00+7sse24825 0.0 103082
09:00+14se345576 0.0 1030492
12:00+18se35445 0.0 10291260
15:00+19se34425 0.0 10271489
18:00+18ese34525 0.0 10271321
21:00+12ese39810 0.0 1026165
12 may, wed
wed1200:00+9se28825 0.0 1027156
03:00+8ese24850 0.0 102675
06:00+8e26840 0.0 1026133
09:00+15e47565 0.0 1024555
12:00+19ese585426 0.0 10231334
15:00+16se4878100 0.2 1022756
18:00+13ese41186100 0.1 1022768
21:00+12se378989 0.1 1022444